User: anonymous   Login
Location: ???????
(55.4362°N, 38.1183°E)
Time: 20:13:57
(UTC+00:00)
Language:

Cosmos 1302 Rocket - Orbit

View from above orbital plane
View from above orbital plane
View from above satellite
View from above satellite

Ground track
Ground track

The orbit data is extracted from the following two-line orbital elements,

1 12792U 81084B   21261.49234488  .00000020  00000-0  15374-4 0  9992
2 12792  74.0297  53.7464 0014372 319.1027  40.9047 14.37631881 98082
Epoch (UTC): 18 September 2021 11:48:58
Eccentricity: 0.0014372
inclination: 74.0297°
perigee height: 756 km
apogee height: 776 km
right ascension of ascending node: 53.7464°
argument of perigee: 319.1027°
revolutions per day: 14.37631881
mean anomaly at epoch: 40.9047°
orbit number at epoch: 9808

The dashed part of the orbit path shows where the satellite is in the earth's shadow,  

DLR